Saint Bonnet de Bellac- Haute Vienne - France
Donnes mto: lundi, 05/11/2012
Date Horaire Temp. E. Hum. E. P.atmo. Pluie Vent Direction Direction Ensoleilleme Solaire P. de rose Temp au vent Rafales
05/11/2012 00:00 7,9 C 91 % 1004,4 hPa 0,0 mm 7,2 km/h (2 Bft) S-SO 202 0 min 0 W/m 6,5 C 6,7 C 8,3 km/h (2 Bft)
05/11/2012 00:15 7,7 C 91 % 1004,3 hPa 0,0 mm 3,2 km/h (1 Bft) SO 225 0 min 0 W/m 6,3 C 7,7 C 7,6 km/h (2 Bft)
05/11/2012 00:30 7,4 C 91 % 1004,3 hPa 0,0 mm 6,1 km/h (2 Bft) SO 225 0 min 0 W/m 6,0 C 6,5 C 8,3 km/h (2 Bft)
05/11/2012 00:45 7,1 C 92 % 1004,4 hPa 0,0 mm 3,6 km/h (1 Bft) SO 225 0 min 0 W/m 5,9 C 7,1 C 6,8 km/h (2 Bft)
05/11/2012 01:00 7,1 C 93 % 1004,4 hPa 0,0 mm 6,5 km/h (2 Bft) S 180 0 min 0 W/m 6,0 C 6,0 C 11,5 km/h (2 Bft)
05/11/2012 01:15 7,6 C 94 % 1004,4 hPa 0,2 mm 9,0 km/h (2 Bft) SO 225 0 min 0 W/m 6,7 C 6,0 C 9,0 km/h (2 Bft)
05/11/2012 01:30 7,8 C 93 % 1004,4 hPa 0,1 mm 5,4 km/h (2 Bft) SO 225 0 min 0 W/m 6,7 C 7,1 C 9,0 km/h (2 Bft)
05/11/2012 01:45 7,7 C 93 % 1004,3 hPa 0,0 mm 6,5 km/h (2 Bft) S-SO 202 0 min 0 W/m 6,6 C 6,7 C 9,4 km/h (2 Bft)
05/11/2012 02:02 7,6 C 92 % 1004,3 hPa 0,0 mm 4,3 km/h (1 Bft) SO 225 0 min 0 W/m 6,4 C 7,6 C 6,8 km/h (2 Bft)
05/11/2012 02:15 7,5 C 92 % 1004,4 hPa 0,0 mm 9,7 km/h (2 Bft) O-SO 247 0 min 0 W/m 6,3 C 5,7 C 14,8 km/h (3 Bft)
05/11/2012 02:30 7,8 C 92 % 1004,4 hPa 0,0 mm 8,3 km/h (2 Bft) S-SO 202 0 min 0 W/m 6,6 C 6,4 C 15,1 km/h (3 Bft)
05/11/2012 02:45 7,8 C 92 % 1004,4 hPa 0,0 mm 5,4 km/h (2 Bft) SO 225 0 min 0 W/m 6,6 C 7,1 C 8,3 km/h (2 Bft)
05/11/2012 03:00 7,7 C 92 % 1004,3 hPa 0,0 mm 5,0 km/h (1 Bft) S-SO 202 0 min 0 W/m 6,5 C 7,1 C 7,9 km/h (2 Bft)
05/11/2012 03:15 7,8 C 93 % 1004,5 hPa 0,1 mm 5,4 km/h (2 Bft) SO 225 0 min 0 W/m 6,7 C 7,1 C 8,6 km/h (2 Bft)
05/11/2012 03:30 7,8 C 93 % 1004,3 hPa 0,1 mm 5,4 km/h (2 Bft) O-SO 247 0 min 0 W/m 6,7 C 7,1 C 10,4 km/h (2 Bft)
05/11/2012 03:45 7,6 C 93 % 1004,3 hPa 0,0 mm 6,5 km/h (2 Bft) S-SO 202 0 min 0 W/m 6,5 C 6,6 C 7,2 km/h (2 Bft)
05/11/2012 04:00 7,6 C 94 % 1004,5 hPa 0,3 mm 10,4 km/h (2 Bft) SO 225 0 min 0 W/m 6,7 C 5,7 C 16,2 km/h (3 Bft)
05/11/2012 04:15 7,7 C 94 % 1004,3 hPa 0,1 mm 7,6 km/h (2 Bft) S 180 0 min 0 W/m 6,8 C 6,4 C 13,0 km/h (3 Bft)
05/11/2012 04:30 7,8 C 93 % 1004,1 hPa 0,1 mm 6,1 km/h (2 Bft) S-SO 202 0 min 0 W/m 6,7 C 6,9 C 13,0 km/h (3 Bft)
05/11/2012 04:45 7,6 C 93 % 1004,3 hPa 0,0 mm 9,0 km/h (2 Bft) S-SO 202 0 min 0 W/m 6,5 C 6,0 C 9,0 km/h (2 Bft)
05/11/2012 05:00 7,5 C 93 % 1004,3 hPa 0,0 mm 6,1 km/h (2 Bft) SO 225 0 min 0 W/m 6,4 C 6,6 C 12,6 km/h (3 Bft)
05/11/2012 05:15 7,4 C 94 % 1004,4 hPa 0,0 mm 4,3 km/h (1 Bft) S 180 0 min 0 W/m 6,5 C 7,4 C 4,3 km/h (1 Bft)
05/11/2012 05:30 7,5 C 94 % 1004,8 hPa 0,0 mm 7,9 km/h (2 Bft) SO 225 0 min 0 W/m 6,6 C 6,1 C 8,6 km/h (2 Bft)
05/11/2012 05:45 7,4 C 93 % 1004,8 hPa 0,0 mm 5,8 km/h (2 Bft) S-SO 202 0 min 0 W/m 6,3 C 6,5 C 8,6 km/h (2 Bft)
05/11/2012 06:00 7,4 C 94 % 1004,8 hPa 0,0 mm 4,3 km/h (1 Bft) S-SO 202 0 min 0 W/m 6,5 C 7,4 C 4,3 km/h (1 Bft)
05/11/2012 06:15 7,4 C 95 % 1005,2 hPa 0,0 mm 4,7 km/h (1 Bft) SO 225 0 min 0 W/m 6,7 C 6,9 C 8,3 km/h (2 Bft)
05/11/2012 06:30 7,5 C 95 % 1005,2 hPa 0,1 mm 13,3 km/h (3 Bft) SO 225 0 min 0 W/m 6,8 C 5,1 C 13,3 km/h (3 Bft)
05/11/2012 06:45 7,8 C 94 % 1005,3 hPa 0,1 mm 7,2 km/h (2 Bft) SO 225 0 min 0 W/m 6,9 C 6,6 C 7,2 km/h (2 Bft)
05/11/2012 07:00 7,8 C 94 % 1005,4 hPa 0,0 mm 8,6 km/h (2 Bft) SO 225 0 min 0 W/m 6,9 C 6,3 C 14,8 km/h (3 Bft)
05/11/2012 07:15 7,8 C 94 % 1005,4 hPa 0,0 mm 7,9 km/h (2 Bft) SO 225 0 min 0 W/m 6,9 C 6,4 C 11,2 km/h (2 Bft)
05/11/2012 07:30 7,8 C 94 % 1005,7 hPa 0,0 mm 6,5 km/h (2 Bft) SO 225 0 min 0 W/m 6,9 C 6,8 C 12,6 km/h (3 Bft)
05/11/2012 07:45 7,8 C 94 % 1005,9 hPa 0,0 mm 7,2 km/h (2 Bft) SO 225 0 min 0 W/m 6,9 C 6,6 C 12,2 km/h (2 Bft)
05/11/2012 08:00 7,8 C 95 % 1006,4 hPa 0,1 mm 7,2 km/h (2 Bft) SO 225 0 min 0 W/m 7,0 C 6,6 C 11,2 km/h (2 Bft)
05/11/2012 08:15 7,8 C 95 % 1006,5 hPa 0,0 mm 4,3 km/h (1 Bft) SO 225 0 min 0 W/m 7,0 C 7,8 C 7,2 km/h (2 Bft)
05/11/2012 08:30 7,8 C 94 % 1006,7 hPa 0,1 mm 4,7 km/h (1 Bft) S-SO 202 0 min 0 W/m 6,9 C 7,4 C 7,2 km/h (2 Bft)
05/11/2012 08:45 8,2 C 94 % 1007,0 hPa 0,0 mm 4,7 km/h (1 Bft) O-SO 247 0 min 0 W/m 7,3 C 7,8 C 9,7 km/h (2 Bft)
05/11/2012 09:00 8,8 C 92 % 1007,2 hPa 0,0 mm 6,8 km/h (2 Bft) S-SO 202 0 min 0 W/m 7,6 C 7,9 C 16,6 km/h (3 Bft)
05/11/2012 09:15 9,4 C 90 % 1007,4 hPa 0,0 mm 8,6 km/h (2 Bft) SO 225 0 min 0 W/m 7,8 C 8,2 C 8,6 km/h (2 Bft)
05/11/2012 09:30 9,8 C 89 % 1007,5 hPa 0,0 mm 6,1 km/h (2 Bft) S 180 0 min 0 W/m 8,1 C 9,2 C 11,2 km/h (2 Bft)
05/11/2012 09:45 10,4 C 86 % 1007,8 hPa 0,0 mm 6,5 km/h (2 Bft) S-SO 202 0 min 0 W/m 8,2 C 10,4 C 14,8 km/h (3 Bft)
05/11/2012 10:00 10,8 C 84 % 1008,1 hPa 0,0 mm 12,2 km/h (2 Bft) S-SO 202 0 min 0 W/m 8,2 C 10,8 C 17,3 km/h (3 Bft)
05/11/2012 10:15 11,3 C 84 % 1008,4 hPa 0,0 mm 8,6 km/h (2 Bft) S-SO 202 0 min 0 W/m 8,7 C 11,3 C 8,6 km/h (2 Bft)
05/11/2012 10:30 11,5 C 84 % 1008,8 hPa 0,0 mm 6,1 km/h (2 Bft) SO 225 0 min 0 W/m 8,9 C 11,5 C 7,9 km/h (2 Bft)
05/11/2012 10:45 11,5 C 83 % 1009,1 hPa 0,0 mm 5,8 km/h (2 Bft) S-SE 157 0 min 0 W/m 8,7 C 11,5 C 10,1 km/h (2 Bft)
05/11/2012 11:00 11,6 C 83 % 1009,1 hPa 0,0 mm 7,2 km/h (2 Bft) O-SO 247 0 min 0 W/m 8,8 C 11,6 C 7,2 km/h (2 Bft)
05/11/2012 11:15 12,3 C 80 % 1009,4 hPa 0,0 mm 7,6 km/h (2 Bft) SO 225 0 min 0 W/m 8,9 C 12,3 C 9,4 km/h (2 Bft)
05/11/2012 11:30 13,0 C 78 % 1009,6 hPa 0,0 mm 3,2 km/h (1 Bft) SO 225 0 min 0 W/m 9,3 C 13,0 C 6,8 km/h (2 Bft)
05/11/2012 11:45 13,5 C 73 % 1009,9 hPa 0,0 mm 9,4 km/h (2 Bft) SO 225 0 min 0 W/m 8,8 C 13,5 C 16,2 km/h (3 Bft)
05/11/2012 12:00 13,6 C 70 % 1010,0 hPa 0,0 mm 7,9 km/h (2 Bft) O-SO 247 0 min 0 W/m 8,2 C 13,6 C 16,2 km/h (3 Bft)
05/11/2012 12:15 13,1 C 74 % 1009,9 hPa 0,0 mm 2,2 km/h (1 Bft) S-SO 202 0 min 0 W/m 8,6 C 13,1 C 6,5 km/h (2 Bft)
05/11/2012 12:30 12,8 C 76 % 1009,9 hPa 0,0 mm 5,4 km/h (2 Bft) S-SO 202 0 min 0 W/m 8,7 C 12,8 C 11,9 km/h (2 Bft)
05/11/2012 12:45 13,3 C 75 % 1010,0 hPa 0,0 mm 6,8 km/h (2 Bft) S-SO 202 0 min 0 W/m 9,0 C 13,3 C 11,5 km/h (2 Bft)
05/11/2012 13:00 12,7 C 74 % 1009,9 hPa 0,0 mm 1,8 km/h (1 Bft) S-SO 202 0 min 0 W/m 8,2 C 12,7 C 4,3 km/h (1 Bft)
05/11/2012 13:15 12,1 C 76 % 1009,8 hPa 0,0 mm 0,0 km/h (0 Bft) SO 225 0 min 0 W/m 8,0 C 12,1 C 0,0 km/h (0 Bft)
05/11/2012 13:30 12,3 C 76 % 1009,9 hPa 0,0 mm 1,8 km/h (1 Bft) SO 225 0 min 0 W/m 8,2 C 12,3 C 4,0 km/h (1 Bft)
05/11/2012 13:45 12,8 C 72 % 1010,2 hPa 0,0 mm 3,6 km/h (1 Bft) SO 225 0 min 0 W/m 7,9 C 12,8 C 7,9 km/h (2 Bft)
05/11/2012 14:00 13,1 C 68 % 1010,2 hPa 0,0 mm 5,0 km/h (1 Bft) O-SO 247 0 min 0 W/m 7,3 C 13,1 C 13,7 km/h (3 Bft)
05/11/2012 14:15 13,1 C 67 % 1010,0 hPa 0,0 mm 2,5 km/h (1 Bft) O 270 0 min 0 W/m 7,1 C 13,1 C 4,0 km/h (1 Bft)
05/11/2012 14:30 13,4 C 65 % 1010,0 hPa 0,0 mm 0,0 km/h (0 Bft) O-SO 247 0 min 0 W/m 7,0 C 13,4 C 0,0 km/h (0 Bft)
05/11/2012 14:45 12,4 C 69 % 1010,1 hPa 0,0 mm 3,2 km/h (1 Bft) O 270 0 min 0 W/m 6,9 C 12,4 C 13,7 km/h (3 Bft)
05/11/2012 15:00 10,9 C 71 % 1010,0 hPa 0,0 mm 6,8 km/h (2 Bft) SO 225 0 min 0 W/m 5,9 C 10,9 C 12,6 km/h (3 Bft)
05/11/2012 15:15 10,5 C 73 % 1010,0 hPa 0,0 mm 6,1 km/h (2 Bft) S-SE 157 0 min 0 W/m 5,9 C 10,5 C 9,7 km/h (2 Bft)
05/11/2012 15:30 10,8 C 76 % 1010,4 hPa 0,0 mm 5,8 km/h (2 Bft) S-SO 202 0 min 0 W/m 6,7 C 10,8 C 9,4 km/h (2 Bft)
05/11/2012 15:45 10,8 C 76 % 1010,6 hPa 0,0 mm 3,2 km/h (1 Bft) S-SO 202 0 min 0 W/m 6,7 C 10,8 C 6,5 km/h (2 Bft)
05/11/2012 16:00 10,9 C 77 % 1010,6 hPa 0,0 mm 1,4 km/h (1 Bft) SO 225 0 min 0 W/m 7,0 C 10,9 C 4,0 km/h (1 Bft)
05/11/2012 16:15 11,1 C 76 % 1010,9 hPa 0,0 mm 1,4 km/h (1 Bft) NO 315 0 min 0 W/m 7,0 C 11,1 C 8,3 km/h (2 Bft)
05/11/2012 16:30 10,6 C 76 % 1010,8 hPa 0,0 mm 0,4 km/h (0 Bft) NO 315 0 min 0 W/m 6,5 C 10,6 C 0,4 km/h (0 Bft)
05/11/2012 16:45 10,1 C 77 % 1010,8 hPa 0,0 mm 0,0 km/h (0 Bft) O-SO 247 0 min 0 W/m 6,3 C 10,1 C 0,0 km/h (0 Bft)
05/11/2012 17:00 9,5 C 80 % 1010,9 hPa 0,0 mm 0,0 km/h (0 Bft) SO 225 0 min 0 W/m 6,2 C 9,5 C 0,0 km/h (0 Bft)
05/11/2012 17:15 9,2 C 81 % 1010,9 hPa 0,0 mm 0,0 km/h (0 Bft) O-SO 247 0 min 0 W/m 6,1 C 9,2 C 0,0 km/h (0 Bft)
05/11/2012 17:30 8,8 C 83 % 1011,1 hPa 0,0 mm 5,0 km/h (1 Bft) S-SO 202 0 min 0 W/m 6,1 C 8,4 C 7,2 km/h (2 Bft)
05/11/2012 17:45 8,3 C 85 % 1011,2 hPa 0,0 mm 0,7 km/h (0 Bft) S-SO 202 0 min 0 W/m 5,9 C 8,3 C 6,1 km/h (2 Bft)
05/11/2012 18:00 7,9 C 85 % 1011,5 hPa 0,0 mm 0,0 km/h (0 Bft) SO 225 0 min 0 W/m 5,5 C 7,9 C 0,0 km/h (0 Bft)
05/11/2012 18:15 7,8 C 87 % 1011,5 hPa 0,0 mm 1,4 km/h (1 Bft) SO 225 0 min 0 W/m 5,8 C 7,8 C 3,6 km/h (1 Bft)
05/11/2012 18:30 7,6 C 89 % 1011,8 hPa 0,0 mm 4,3 km/h (1 Bft) SO 225 0 min 0 W/m 5,9 C 7,6 C 4,7 km/h (1 Bft)
05/11/2012 18:45 7,8 C 89 % 1012,0 hPa 0,0 mm 5,0 km/h (1 Bft) S-SO 202 0 min 0 W/m 6,1 C 7,3 C 11,5 km/h (2 Bft)
05/11/2012 19:00 8,1 C 89 % 1012,3 hPa 0,0 mm 5,0 km/h (1 Bft) O-SO 247 0 min 0 W/m 6,4 C 7,6 C 8,3 km/h (2 Bft)
05/11/2012 19:15 8,5 C 87 % 1012,4 hPa 0,0 mm 3,2 km/h (1 Bft) S-SO 202 0 min 0 W/m 6,5 C 8,5 C 6,5 km/h (2 Bft)
05/11/2012 19:30 8,6 C 87 % 1012,4 hPa 0,0 mm 5,4 km/h (2 Bft) E-SE 112 0 min 0 W/m 6,6 C 8,0 C 9,7 km/h (2 Bft)
05/11/2012 19:45 8,7 C 87 % 1012,4 hPa 0,0 mm 5,8 km/h (2 Bft) SO 225 0 min 0 W/m 6,7 C 8,0 C 7,6 km/h (2 Bft)
05/11/2012 20:00 8,7 C 88 % 1012,5 hPa 0,0 mm 8,3 km/h (2 Bft) S-SO 202 0 min 0 W/m 6,8 C 7,4 C 9,4 km/h (2 Bft)
05/11/2012 20:15 8,6 C 89 % 1012,7 hPa 0,1 mm 8,3 km/h (2 Bft) SO 225 0 min 0 W/m 6,9 C 7,3 C 11,9 km/h (2 Bft)
05/11/2012 20:30 8,5 C 89 % 1013,1 hPa 0,3 mm 13,3 km/h (3 Bft) S-SO 202 0 min 0 W/m 6,8 C 6,3 C 15,1 km/h (3 Bft)
05/11/2012 20:45 7,9 C 90 % 1013,2 hPa 0,4 mm 8,3 km/h (2 Bft) S-SE 157 0 min 0 W/m 6,4 C 6,5 C 10,8 km/h (2 Bft)
05/11/2012 21:00 7,5 C 90 % 1012,9 hPa 0,1 mm 5,4 km/h (2 Bft) S-SO 202 0 min 0 W/m 6,0 C 6,8 C 8,6 km/h (2 Bft)
05/11/2012 21:15 7,2 C 91 % 1013,3 hPa 0,0 mm 3,2 km/h (1 Bft) S-SO 202 0 min 0 W/m 5,8 C 7,2 C 4,3 km/h (1 Bft)
05/11/2012 21:30 7,2 C 92 % 1013,3 hPa 0,0 mm 5,0 km/h (1 Bft) S 180 0 min 0 W/m 6,0 C 6,6 C 7,6 km/h (2 Bft)
05/11/2012 21:45 7,2 C 92 % 1013,2 hPa 0,1 mm 4,7 km/h (1 Bft) SO 225 0 min 0 W/m 6,0 C 6,7 C 8,6 km/h (2 Bft)
05/11/2012 22:00 7,1 C 92 % 1013,4 hPa 0,0 mm 5,8 km/h (2 Bft) S-SO 202 0 min 0 W/m 5,9 C 6,2 C 10,4 km/h (2 Bft)
05/11/2012 22:15 7,0 C 93 % 1013,4 hPa 0,0 mm 4,3 km/h (1 Bft) S-SO 202 0 min 0 W/m 5,9 C 7,0 C 4,3 km/h (1 Bft)
05/11/2012 22:30 6,9 C 93 % 1013,4 hPa 0,0 mm 4,0 km/h (1 Bft) S 180 0 min 0 W/m 5,8 C 6,9 C 7,9 km/h (2 Bft)
05/11/2012 22:45 7,1 C 93 % 1013,3 hPa 0,0 mm 6,5 km/h (2 Bft) S-SO 202 0 min 0 W/m 6,0 C 6,0 C 13,0 km/h (3 Bft)
05/11/2012 23:00 7,1 C 94 % 1013,2 hPa 0,0 mm 3,6 km/h (1 Bft) S-SO 202 0 min 0 W/m 6,2 C 7,1 C 6,5 km/h (2 Bft)
05/11/2012 23:15 6,9 C 94 % 1013,3 hPa 0,0 mm 3,6 km/h (1 Bft) S-SO 202 0 min 0 W/m 6,0 C 6,9 C 8,6 km/h (2 Bft)
05/11/2012 23:30 6,9 C 94 % 1013,2 hPa 0,0 mm 5,4 km/h (2 Bft) S-SO 202 0 min 0 W/m 6,0 C 6,1 C 5,4 km/h (2 Bft)
05/11/2012 23:45 6,9 C 94 % 1013,5 hPa 0,0 mm 4,0 km/h (1 Bft) SO 225 0 min 0 W/m 6,0 C 6,9 C 7,2 km/h (2 Bft)
_ Min-Heure 23:45 14:30 04:30 - 18:00 - - - - 18:00 06:30 18:00
Minimum _ 6,9 C 65 % 1004,1 hPa - 0,0 km/h (0 Bft) - - - - 5,5 C 5,1 C 0,0 km/h (0 Bft)
_ Max-Heure 12:00 08:15 23:45 20:45 20:30 - - 23:45 23:45 11:30 12:00 10:00
Maximum _ 13,6 C 95 % 1013,5 hPa 0,4 mm 13,3 km/h
S-SO (3 Bft)
- - 0 min 0 W/m 9,3 C 13,6 C 17,3 km/h
S-SO (3 Bft)
Moyenne _ 9,1 C 87 % 1008,7 hPa #1,8 mm 5,4 km/h (1 Bft) SO - #0 min. 0 W/m 6,9 C 8,6 C 8,7 km/h (2 Bft)
Saint Bonnet de Bellac- Haute Vienne - France